Location: Baumgartsau
(48.4586°N, 14.0864°E)
Time: 00:28:27
(UTC+00:00)

SL-16 R/B - Pass Details

Date: 09 August 2020
Orbit: 843 x 845 km, 71.0° (Epoch: 26 September)

Event Time Altitude Azimuth Distance (km) Brightness Sun altitude
Rises 23:04:48 0° 315° (NW) 3,414 6.0 -26.0°
Reaches altitude 10° 23:09:02 10° 285° (WNW) 2,472 4.8 -26.0°
Maximum altitude 23:10:55 12° 265° (W) 2,349 4.4 -26.0°
Enters shadow 23:11:20 12° 261° (W) 2,354 4.4 -26.0°
